Tracking 28793 objects as of 20-Apr-2024
HD Live streaming from Space Station
objects crossing your sky now

FLOCK 4S 30

Track FLOCK 4S 30 now!
10-day predictions
FLOCK 4S 30 is classified as:


NORAD ID: 47544
Int'l Code: 2021-006EE
Perigee: 435.9 km
Apogee: 442.3 km
Inclination: 97.3 °
Period: 93.2 minutes
Semi major axis: 6810 km
RCS: Unknown
Launch date: January 24, 2021
Source: United States (US)
Launch site: AIR FORCE EASTERN TEST RANGE (AFETR)
Your satellite tracking list
Your tracking list is empty




NASA's NSSDC Master Catalog

Two Line Element Set (TLE):
1 47544U 21006EE  24111.12247653  .00080876  00000-0  17131-2 0  9996
2 47544  97.3347 174.3865 0004642  78.9213 281.2558 15.44798065180941
Source of the keplerian elements: AFSPC